Location: ????????
(55.4000°N, 39.1167°E)
Time: 02:48:17
(UTC+00:00)

IRIDIUM 103 - Pass Details

Date: 19 May 2025
Orbit: 775 x 780 km, 86.4° (Epoch: 14 June)

Event Time Altitude Azimuth Distance (km) Brightness Sun altitude
Exits shadow 22:40:52 17° 184° (S) 1,893 5.7 -12.7°
Maximum altitude 22:44:58 88° 274° (W) 788 4.3 -12.5°
Drops below altitude 10° 22:50:14 10° 5° (N) 2,345 8.1 -12.2°
Sets 22:52:36 0° 6° (N) 3,277 9.2 -12.1°
